CW9688 Weather Reports


Display with metric or nautical units.
time (UTC)temp
F
wind
direction
speed
MPH
gust
MPH
rain 1hr
in
rain 24hr
in
rain mn
in
humidity
%
barometer
mb
20260505195305 39 5 7.0 12.0 0.00 0.37 0.29 91 1008.1
20260505194304 39 14 6.0 9.0 0.00 0.37 0.29 91 1008.1
20260505192305 40 21 5.0 8.0 0.00 0.37 0.29 92 1008.1
20260505191304 39 26 3.0 6.0 0.01 0.37 0.29 91 1008.1
20260505190804 39 9 6.0 8.0 0.01 0.37 0.29 92 1008.1
20260505183804 39 46 4.0 8.0 0.02 0.37 0.29 93 1008.1
20260505183304 39 54 5.0 7.0 0.02 0.37 0.29 93 1008.1
20260505182804 39 58 4.0 7.0 0.03 0.37 0.29 94 1008.1
20260505181305 38 50 3.0 10.0 0.02 0.36 0.28 93 1008.1
20260505180804 38 44 2.0 6.0 0.02 0.36 0.28 93 1008.1
20260505175804 38 45 5.0 7.0 0.02 0.36 0.28 93 1008.0
20260505175305 38 30 5.0 8.0 0.02 0.36 0.28 93 1008.0
20260505173804 38 19 3.0 5.0 0.02 0.35 0.27 93 1008.0
20260505171304 38 0 3.0 5.0 0.02 0.34 0.26 94 1008.0
20260505170804 38 322 5.0 6.0 0.02 0.34 0.26 94 1008.0
20260505165306 37 18 3.0 6.0 0.03 0.34 0.26 93 1008.0
20260505164804 37 339 2.0 5.0 0.02 0.33 0.25 94 1008.0
20260505162306 37 44 2.0 5.0 0.01 0.32 0.24 94 1008.0
20260505161804 37 358 4.0 7.0 0.01 0.32 0.24 94 1008.0
20260505161305 37 15 3.0 5.0 0.01 0.32 0.24 94 1008.0
20260505160804 37 5 2.0 5.0 0.01 0.32 0.24 94 1008.0
20260505160304 37 352 4.0 7.0 0.01 0.32 0.24 94 1008.0
20260505153304 36 322 3.0 8.0 0.02 0.31 0.23 94 1008.0
20260505152305 36 318 4.0 7.0 0.02 0.31 0.23 94 1008.0
20260505151804 36 254 2.0 5.0 0.02 0.31 0.23 94 1008.0
20260505150804 36 278 2.0 6.0 0.03 0.31 0.23 94 1008.0
20260505123804 36 343 6.0 12.0 0.04 0.23 0.15 93 1008.0
20260505122305 36 351 9.0 13.0 0.04 0.22 0.14 93 1008.0
20260505121804 36 345 7.0 14.0 0.04 0.22 0.14 93 1008.0
20260505120305 37 350 9.0 12.0 0.04 0.21 0.13 92 1005.6
20260505115804 37 341 8.0 12.0 0.04 0.21 0.13 92 1005.6
20260505115305 37 355 7.0 15.0 0.04 0.21 0.13 92 1005.6
20260505114304 37 333 9.0 12.0 0.03 0.20 0.12 91 1005.6
20260505113304 38 356 7.0 13.0 0.02 0.18 0.10 90 1005.6
20260505112804 39 349 9.0 15.0 0.02 0.18 0.10 90 1005.6
20260505111804 39 1 9.0 17.0 0.03 0.18 0.10 90 1005.6
20260505111304 39 8 10.0 17.0 0.03 0.18 0.10 91 1005.6
20260505101304 41 350 5.0 12.0 0.03 0.15 0.07 91 1005.6
20260505100804 41 3 8.0 12.0 0.02 0.14 0.06 91 1005.6
20260505095305 41 4 7.0 12.0 0.01 0.13 0.05 91 1005.6
20260505094304 41 11 7.0 12.0 0.01 0.12 0.04 91 1005.6
20260505093304 42 11 6.0 10.0 0.02 0.12 0.04 92 1005.6
20260505090804 43 2 6.0 12.0 0.04 0.12 0.04 92 1005.6
20260505090304 43 7 5.0 12.0 0.04 0.12 0.04 92 1005.6
20260505085804 43 16 6.0 10.0 0.04 0.12 0.04 92 1005.6
20260505085305 44 6 3.0 9.0 0.04 0.12 0.04 92 1005.6
20260505083803 44 299 2.0 6.0 0.02 0.10 0.02 91 1005.6
20260505080304 48 22 3.0 5.0 0.00 0.08 0.00 91 1005.6
20260505074804 48 0 2.0 3.0 0.00 0.08 0.00 92 1005.6
20260505074304 48 4 2.0 3.0 0.00 0.08 0.00 90 1005.6
20260505073304 48 144 2.0 3.0 0.00 0.08 0.00 90 1005.6
20260505072804 48 144 0.0 0.0 0.00 0.08 0.00 90 1005.6
20260505072305 48 144 0.0 0.0 0.00 0.08 0.00 90 1005.6
20260505070304 48 144 0.0 2.0 0.00 0.08 0.00 90 1005.6
20260505065804 48 144 0.0 2.0 0.00 0.08 0.00 90 1005.6
20260505064304 48 144 0.0 0.0 0.00 0.08 0.00 89 1005.6
20260505063804 48 144 0.0 0.0 0.00 0.08 0.00 89 1005.6
20260505063304 48 144 0.0 0.0 0.00 0.08 0.00 89 1005.6
20260505062304 48 144 1.0 3.0 0.00 0.08 0.00 89 1005.6
20260505060816 48 178 2.0 6.0 0.00 0.08 0.00 89 1005.6
20260505055804 48 198 2.0 5.0 0.00 0.08 0.08 90 1005.6
20260505055304 48 177 3.0 5.0 0.00 0.08 0.08 90 1005.6
20260505054804 48 185 2.0 3.0 0.00 0.08 0.08 87 1005.6
20260505053804 48 183 2.0 3.0 0.00 0.08 0.08 87 1005.6
20260505052304 48 183 1.0 3.0 0.01 0.08 0.08 87 1005.6
20260505051805 48 174 2.0 5.0 0.02 0.08 0.08 87 1005.6
20260505050804 48 219 0.0 2.0 0.02 0.08 0.08 87 1005.6
20260505041305 49 236 2.0 3.0 0.04 0.06 0.06 87 1005.6
20260505040304 49 252 3.0 7.0 0.06 0.06 0.06 87 1005.6
20260505035804 49 260 2.0 5.0 0.06 0.06 0.06 87 1005.6
20260505034804 49 288 4.0 8.0 0.05 0.05 0.05 85 1005.6
20260505033303 49 272 6.0 12.0 0.04 0.04 0.04 85 1005.6
20260505032803 49 279 4.0 6.0 0.03 0.03 0.03 84 1005.6
20260505032304 50 280 3.0 9.0 0.03 0.03 0.03 81 1005.6
20260505031804 50 286 4.0 12.0 0.02 0.02 0.02 80 1005.6
20260505030804 51 331 3.0 6.0 0.01 0.01 0.01 76 1010.4
20260505025803 53 339 4.0 7.0 0.00 0.00 0.00 68 1010.4
20260505025305 53 341 5.0 12.0 0.00 0.00 0.00 67 1010.4
20260505024804 53 358 6.0 8.0 0.00 0.00 0.00 64 1010.4
20260505021804 54 310 5.0 8.0 0.00 0.00 0.00 63 1010.4
20260505015304 54 329 7.0 14.0 0.00 0.00 0.00 62 1010.4
20260505014804 55 317 9.0 14.0 0.00 0.00 0.00 60 1010.4
20260505013804 57 354 4.0 9.0 0.00 0.00 0.00 53 1010.4
20260505010804 58 30 0.0 2.0 0.00 0.00 0.00 49 1010.4
20260505005304 59 5 1.0 5.0 0.00 0.00 0.00 49 1010.4
20260505004804 59 9 1.0 5.0 0.00 0.00 0.00 48 1010.4
20260505004303 59 35 2.0 7.0 0.00 0.00 0.00 47 1010.4
20260505003804 58 359 6.0 12.0 0.00 0.00 0.00 47 1010.4
20260505003304 58 354 8.0 12.0 0.00 0.00 0.00 48 1010.4
20260505002804 59 349 7.0 13.0 0.00 0.00 0.00 48 1010.4
20260505002304 59 338 7.0 17.0 0.00 0.00 0.00 47 1010.4
20260505001303 61 343 10.0 15.0 0.00 0.00 0.00 42 1010.4
20260505000803 61 335 6.0 14.0 0.00 0.00 0.00 39 1010.4
20260505000304 61 347 7.0 13.0 0.00 0.00 0.00 38 1010.4
20260504235804 62 357 7.0 17.0 0.00 0.00 0.00 38 1010.4
20260504233804 62 325 9.0 13.0 0.00 0.00 0.00 40 1010.4
20260504233304 62 354 9.0 14.0 0.00 0.00 0.00 41 1010.4
20260504232804 63 10 5.0 8.0 0.00 0.00 0.00 37 1010.4
20260504232304 62 211 2.0 5.0 0.00 0.00 0.00 37 1010.4
20260504230804 62 92 6.0 13.0 0.00 0.00 0.00 38 1010.4
20260504230304 63 258 10.0 21.0 0.00 0.00 0.00 39 1010.4
20260504224304 64 345 8.0 12.0 0.00 0.00 0.00 32 1010.4
20260504223304 64 355 9.0 16.0 0.00 0.00 0.00 32 1010.4
20260504222804 64 340 8.0 20.0 0.00 0.00 0.00 32 1010.4
20260504221803 65 3 10.0 17.0 0.00 0.00 0.00 31 1010.4
20260504220304 66 6 12.0 20.0 0.00 0.00 0.00 30 1010.4
20260504215804 67 355 11.0 26.0 0.00 0.00 0.00 29 1010.4
20260504214804 68 16 16.0 24.0 0.00 0.00 0.00 29 1010.4
20260504214304 68 5 13.0 26.0 0.00 0.00 0.00 30 1010.4
20260504212804 68 7 15.0 25.0 0.00 0.00 0.00 29 1010.4
20260504210804 67 350 12.0 20.0 0.00 0.00 0.00 27 1010.4
20260504210304 68 332 6.0 10.0 0.00 0.00 0.00 25 1010.4
20260504205803 68 252 4.0 9.0 0.00 0.00 0.00 24 1010.4
20260504205304 67 255 4.0 8.0 0.00 0.00 0.00 24 1010.4
20260504204803 68 223 5.0 9.0 0.00 0.00 0.00 23 1010.4
20260504203303 67 164 5.0 7.0 0.00 0.00 0.00 23 1010.4
20260504202804 67 216 6.0 12.0 0.00 0.00 0.00 24 1010.4
20260504201303 66 178 8.0 20.0 0.00 0.00 0.00 27 1010.4
20260504200804 66 212 13.0 25.0 0.00 0.00 0.00 26 1010.4